Regional Weather Roundup
Issued by NWS

Home | Current Version | Previous Version | Graphics & Text | Print | Product List | Glossary On
Versions: 1 2 3 4 5 6 7 8 9 10 11 12 13 14 15 16 17 18 19 20 21 22 23 24 25 26 27 28 29 30 31 32 33 34 35 36 37 38 39 40 41 42 43 44 45 46 47 48 49 50
000
ASUS43 KFSD 211310
RWRSD

WEATHER ROUNDUP FOR SOUTH DAKOTA
NATIONAL WEATHER SERVICE SIOUX FALLS SD
800 AM CDT MON AUG 21 2017

NOTE: "FAIR" INDICATES FEW OR NO CLOUDS BELOW 12,000 FEET WITH NO
SIGNIFICANT WEATHER AND/OR OBSTRUCTIONS TO VISIBILITY.


SDZ001>005-009-010-012>017-211400-
NORTHWEST AND NORTH CENTRAL SOUTH DAKOTA

CITY           SKY/WX    TMP DP  RH WIND       PRES   REMARKS
BUFFALO          N/A     56  51  84 NW12      29.97S
FAITH            N/A     60  60 100 E7        30.02R
MOBRIDGE       CLOUDY    60  53  77 CALM      30.00R
$$

SDZ012>016-024>037-041>051-057-063-072>074-211400-
SOUTHWEST AND SOUTH CENTRAL SOUTH DAKOTA

CITY           SKY/WX    TMP DP  RH WIND       PRES   REMARKS
RAPID CTY ARPT CLEAR     58  52  80 N6        30.01R
PIERRE         CLOUDY    61  55  81 NE14      29.96F
CUSTER         CLEAR     62  56  80 VRB7      30.11S
ELLSWORTH AFB  CLEAR     59  53  81 CALM      30.00R
PHILIP         LGT RAIN  62  57  83 N17       30.00R
PINE RIDGE     CLOUDY    70  69  97 W3        29.98S
SPEARFISH      FAIR      63  52  67 W5        30.07R
WINNER         CLOUDY    64  62  93 NE7       29.97R
$$

SDZ004>011-016>023-039-040-211400-
NORTHEAST SOUTH DAKOTA

CITY           SKY/WX    TMP DP  RH WIND       PRES   REMARKS
ABERDEEN       LGT RAIN  58  56  93 S13       30.01F
WATERTOWN      TSTM      63  62  97 CALM      30.02F
BROOKINGS      CLOUDY    65  61  87 SE6       29.99F
SISSETON         N/A     58  57  97 NW8       30.05R
$$

SDZ017-020-022-023-036>040-048>070-211400-
SOUTHEAST SOUTH DAKOTA

CITY           SKY/WX    TMP DP  RH WIND       PRES   REMARKS
SIOUX FALLS    CLOUDY    68  66  93 CALM      29.98F
HURON          CLOUDY    64  61  90 N5        29.99R
CHAMBERLAIN    CLOUDY    65  65 100 NE6       29.99R
MITCHELL       CLOUDY    66  65  96 E6        29.97F
YANKTON        PTSUNNY   70  64  81 SE9       29.97F
$$

ABBREVIATIONS USED IN REMARKS
   TC - TEMPERATURE IN CELSIUS
  WCI - WIND CHILL INDEX
   HX - HEAT INDEX
  VSB - VISIBILITY





USA.gov is the U.S. government's official web portal to all federal, state and local government web resources and services.